Flag for Germany Past Weather in Geislingen an der Steige, Baden-Württemberg, Germany — Yesterday and Last 2 Weeks

Now
54 °F

Passing clouds.


Feels Like: 53 °F
Forecast: 53 / 71 °F
Wind: 5 mph from Southwest

Location: Laupheim Airport

Current Time: Sep 29, 2016 at 10:28:03 AM

Latest Report: Sep 29, 2016 at 9:20 AM


Visibility: 6 mi

Pressure: 30.30 "Hg

Humidity: 94%

Dew Point: 52 °F

Location of Geislingen an der SteigeLocation

Past Weather in Geislingen an der Steige — Graph

°F

Geislingen an der Steige Temperature Yesterday

Maximum temperature yesterday: 68 °F (at 3:20 PM)
Minimum temperature yesterday: 46 °F (at 5:20 AM)
Average temperature yesterday: 56 °F

High & Low Weather Summary for the Past Weeks

 TemperatureHumidityPressure
High81 °F (Sep 14, 4:20 PM)100% (Sep 15, 7:20 AM)30.45 "Hg (Sep 15, 7:20 AM)
Low39 °F (Sep 22, 5:20 AM)42% (Sep 14, 5:20 PM)29.86 "Hg (Sep 15, 4:20 AM)
Average57 °F82%30.12 "Hg
* Reported Sep 14 8:20 AM — Sep 29 8:20 AM, Geislingen an der Steige, Weather by CustomWeather, © 2016

Note: Actual official high and low records may vary slightly from our data, if they occured in-between our weather recording intervals... More about our weather records

Advertising

Geislingen an der Steige Weather History for the Previous 24 Hours

Scroll right to see more
 ConditionsComfort  
Time TempWeatherWind HumidityBarometerVisibility
8:20 AM
Thu, Sep 29
50 °FFog.1 mph100%30.30 "Hg3 mi
7:20 AM50 °FFog.3 mph100%30.30 "Hg2 mi
6:56 AM50 °FFog.3 mph100%30.30 "Hg2 mi
6:20 AM52 °FFog.5 mph94%30.30 "Hg2 mi
5:20 AM52 °FPassing clouds.3 mph94%30.33 "Hg4 mi
4:20 AM54 °FPassing clouds.6 mph94%30.33 "Hg4 mi
3:20 AM54 °FFog.6 mph94%30.36 "Hg3 mi
2:20 AM54 °FFog.6 mph94%30.36 "Hg3 mi
1:20 AM55 °FPassing clouds.6 mph88%30.39 "HgN/A
12:20 AM55 °FPassing clouds.6 mph88%30.39 "HgN/A
11:20 PM
Wed, Sep 28
57 °FPassing clouds.3 mph82%30.39 "HgN/A
10:20 PM57 °FPassing clouds.6 mph82%30.39 "HgN/A
9:20 PM59 °FPassing clouds.5 mph77%30.39 "HgN/A
8:20 PM61 °FPassing clouds.5 mph77%30.39 "HgN/A
7:20 PM63 °FPassing clouds.7 mph73%30.39 "HgN/A
6:20 PM66 °FPartly sunny.8 mph60%30.36 "HgN/A
5:20 PM68 °FPartly sunny.12 mph56%30.36 "HgN/A
4:20 PM68 °FPartly sunny.10 mph56%30.36 "HgN/A
3:20 PM68 °FPartly sunny.12 mph56%30.39 "HgN/A
2:20 PM66 °FPartly sunny.8 mph68%30.39 "HgN/A
1:20 PM64 °FPartly sunny.8 mph73%30.42 "HgN/A
12:20 PM61 °FPartly sunny.12 mph77%30.42 "HgN/A
11:53 AM59 °FBroken clouds.10 mph82%30.45 "Hg6 mi
11:20 AM57 °FPartly sunny.9 mph88%30.45 "Hg4 mi
10:50 AM55 °FFog.9 mph100%30.45 "Hg2 mi
10:20 AM54 °FFog.9 mph100%30.45 "Hg1 mi
Weather by CustomWeather, © 2016

See weather overviewHow to use our weather pages